Airfield :
LOGIN :

Register | Disclaimer

   EN    FR    IT 

 










Legend :    VFR   Marginal VFR   IFR   Intensive IFR   Very Intensive IFR
Visi :
Ceiling :
>= 8 km
>= 3000ft
5 to 8 km
1000 to 3000 ft
1500m to 5 km
500 to 1000 ft
800 to 1500m
200 to 500 ft
< 800m
< 200 ft
Symbols :   Thunderstorms  Fog  Heavy snow  Heavy precipitations  Wind > 20 kt
SIGMETs :     Misc.  Thunderstorms  Icing  Turbulence  Mountain Waves  Volcanic Ashes







- Airport Elevation : 1548 ft


LKNA - Náměšť Air Base

CURRENT METAR :
  • 160700Z 01004KT 320V030 CAVOK 20/11 Q1020 NOSIG RMK BLU BLU

EXPIRED METARs :
  • 160600Z 35005KT CAVOK 17/11 Q1021 NOSIG
  • 160500Z 33005KT CAVOK 15/11 Q1020 NOSIG

TAF TAF LKNA
Valid from the 16 at 06:00 until the 17 at 06:00 UTC


160500Z 1606/1706 VRB02KT CAVOK
TEMPO 1606/1614 34006KT
TEMPO 1614/1623 12006KT
No reported NOTAMs for that airfield.



MET'MAP, your aeronautical weather chart ! - Copyright ORBIFLY December 2007 - Disclaimer

ORBIFLY MET'MAP TEAM :

Programming & Development : Alexandra Zaïnal
Concept & Development : Baudouin d'Aumeries
Co-Development & Prog : Marc-Olivier Méhu
Technical & hardware support : Manuel Goepfert

Contact : metmap@orbifly.com




SOURCES & CREDITS :

   NOAA